Regional Weather Roundup
Issued by NWS Lake Charles, LA

Home | Current Version | Previous Version | Text Only | Print | Product List | Glossary On
Versions: 1 2 3 4 5 6 7 8 9 10 11 12 13 14 15 16 17 18 19 20 21 22 23 24 25 26 27 28 29 30 31 32 33 34 35 36 37 38 39 40 41 42 43 44 45 46 47 48 49 50
000
ASUS44 KLCH 182010
RWRLCH
RWRLCH
REGIONAL WEATHER ROUNDUP
NATIONAL WEATHER SERVICE LAKE CHARLES LA
300 PM CDT SAT APR 18 2015

Note: "fair" indicates few or no clouds below 12,000 feet with no
significant weather and/or obstructions to visibility.


ACROSS SOUTHEAST TEXAS

CITY           SKY/WX    TMP DP  RH WIND       PRES   REMARKS
BEAUMONT       CLOUDY    74  71  91 SE10      29.78F
BEAUMONT CITY  CLOUDY    74  70  89 SE5       29.80F
ORANGE         CLOUDY    73  68  86 SE3       29.85R
JASPER         LGT RAIN  73  71  92 CALM      29.86F
$$

ACROSS CENTRAL LOUISIANA

CITY           SKY/WX    TMP DP  RH WIND       PRES   REMARKS
LEESVILLE      CLOUDY    72  68  88 SE3       29.83R
FULLERTON      CLOUDY    74  68  81 CALM      29.81F
ALEXANDRIA INT CLOUDY    68  67  96 E5        29.82F FOG
ESLER FIELD    RAIN      68  67  96 CALM      29.84F
DERIDDER       MOCLDY    73  69  88 S5        29.86R
OAKDALE        CLOUDY    73  69  86 SE5       29.83F
OPELOUSAS      CLOUDY    75  69  81 SW7       29.84F
$$

ACROSS SOUTHWEST AND SOUTH CENTRAL LOUISIANA

CITY           SKY/WX    TMP DP  RH WIND       PRES   REMARKS
SULPHUR        LGT RAIN  74  72  91 S12       29.85R
LAKE CHARLES   LGT RAIN  74  69  85 S10       29.83F
CHENNAULT INT  CLOUDY    73  70  88 SE10      29.84F
CAMERON PHI    CLOUDY    73  70  88 S7        29.87R
DEQUINCY       CLOUDY    72  72 100 W3        29.86R
JENNINGS       CLOUDY    74  69  85 SE7       29.83F
LAFAYETTE      CLOUDY    76  67  73 S7        29.84F
NEW IBERIA     CLOUDY    76  68  76 S14       29.85F
ABBEVILLE      MOCLDY    73  69  87 SE8       29.85F
PATTERSON      CLOUDY    73  68  83 SE7       29.88S
SALT POINT       N/A     75  70  84 SE7       29.84S
$$

SELECTED SITES ACROSS THE REGION

CITY           SKY/WX    TMP DP  RH WIND       PRES   REMARKS
HOUSTON BUSH   CLOUDY    77  69  76 CALM      29.80F
HOUSTON HOBBY  CLOUDY    77  70  79 CALM      29.80F
GALVESTON      NOT AVBL
COLLEGE STAT   PTSUNNY   77  66  68 CALM      29.82F
CONROE         CLOUDY    76  67  73 S9        29.82F
HUNTSVILLE     PTSUNNY   77  67  71 CALM      29.82F
LUFKIN         CLOUDY    79  66  64 S6        29.83S
SHREVEPORT     HVY RAIN  71  67  87 E6        29.82F FOG
MONROE         PTSUNNY   76  67  73 S8        29.83F
NATCHEZ MS     CLOUDY    72  66  83 N6        29.87S
BATON ROUGE    CLOUDY    77  68  73 S9        29.85R
N.O. INTL ARPT CLOUDY    77  69  76 SE10      29.85S
SLIDELL        PTSUNNY   78  71  79 SE10      29.85F
$$

MARINE REPORTS

STATION/POSITION TIME  TEMP    WIND        PRES    VSBY  WAVE
                       AIR SEA DIR/SP/G                  HT/PER
                 (UTC) (F)     (DEG/KT/KT) (MB)    (MI)  (FT/S)
BUOY 30 S HIGH I 1950   72 72  180/  6/  8 1008.3F         3/ 5
SEA RIM ST PARK  2000   73     150/  9/ 11 1009.4F
PORT ARTHUR      1912      72  140/ 10/ 15 1009.3F
SABINE PASS N    1900   73 73  150/ 10/ 12 1010.2F
TEXAS POINT      NOT AVBL
CALCASIEU PASS   1900   73 74  180/  7/ 11   N/A
LK CHARLES BEACH 1912   73 71              1010.3F
MARSH ISLAND     NOT AVBL
FRESH WATER LOCK 1906   74 75  150/  5/  8 1011.1R
AMERADA PASS     1912   73 68  130/  4/  7 1011.3R
$$



USA.gov is the U.S. government's official web portal to all federal, state and local government web resources and services.